Flag for Morocco Weather past 2 weeks in Tangier, Morocco

Now
81 °F

Passing clouds.


Feels Like: 80 °F
Forecast: 61 / 74 °F
Wind: 25 mph from East

Location: Tanger Aerodrome

Current Time: May 28, 2015 at 6:23:47 PM

Latest Report: May 28, 2015 at 6:00 PM


Visibility: 5 mi

Pressure: 29.83 "Hg

Humidity: 34%

Dew point: 50 °F

Location of TangierLocation

Historic Weather in Tangier — Graph

°F

Tangier temperature yesterday

Maximum temperature yesterday: 88 °F (at 12:30 PM)
Minimum temperature yesterday: 61 °F (at 6:00 AM)
Average temperature yesterday: 73 °F

Past Weeks' High & Low Weather Summary

 TemperatureHumidityPressure
High88 °F (May 27, 12:30 PM)94% (May 19, 1:00 AM)30.18 "Hg (May 19, 1:00 AM)
Low54 °F (May 16, 1:00 AM)25% (May 27, 12:30 PM)29.83 "Hg (May 28, 5:00 PM)
Average70 °F57%29.99 "Hg
* Reported May 13 5:00 PM — May 28 5:00 PM, Tangier, Weather by CustomWeather, © 2015

Note: Actual official high and low records may vary slightly from our data, if they occured in-between our weather recording intervals... More about our weather records

Advertising

Tangier weather history for previous 24 hours

 ConditionsComfort  
Time TempWeatherWind HumidityBarometerVisibility
5:00 PM
Thu, May 28
82 °FPassing clouds.25 mph30%29.83 "Hg5 mi
4:30 PM84 °FPassing clouds.24 mph31%29.86 "Hg5 mi
4:00 PM84 °FPassing clouds.26 mph33%29.86 "Hg5 mi
3:30 PM82 °FPassing clouds.28 mph32%29.86 "Hg5 mi
3:00 PM82 °FPassing clouds.29 mph35%29.86 "Hg5 mi
2:30 PM84 °FPassing clouds.28 mph33%29.89 "Hg5 mi
2:00 PM84 °FPassing clouds.25 mph35%29.89 "Hg5 mi
1:30 PM82 °FPartly sunny.23 mph37%29.89 "Hg5 mi
1:00 PM82 °FPartly sunny.25 mph37%29.89 "Hg5 mi
12:30 PM82 °FPartly sunny.25 mph37%29.92 "Hg5 mi
12:00 PM81 °FPartly sunny.24 mph39%29.92 "Hg5 mi
11:30 AM81 °FPartly sunny.24 mph39%29.89 "Hg5 mi
11:00 AM79 °FPartly sunny.23 mph45%29.92 "Hg5 mi
10:30 AM77 °FPartly sunny.22 mph47%29.92 "Hg5 mi
10:00 AM75 °FSunny.24 mph50%29.92 "Hg10 mi
9:30 AM75 °FScattered clouds.26 mph50%29.92 "HgN/A
9:00 AM73 °FScattered clouds.23 mph53%29.92 "HgN/A
8:30 AM73 °FScattered clouds.20 mph53%29.92 "HgN/A
8:00 AM72 °FScattered clouds.21 mph57%29.92 "HgN/A
7:30 AM70 °FPassing clouds.20 mph57%29.95 "HgN/A
7:00 AM70 °FPassing clouds.23 mph57%29.92 "HgN/A
6:30 AM70 °FPassing clouds.21 mph57%29.92 "HgN/A
6:00 AM70 °FPassing clouds.23 mph57%29.89 "HgN/A
5:30 AM70 °FClear.22 mph57%29.92 "Hg10 mi
5:00 AM70 °FClear.21 mph57%29.92 "Hg10 mi
4:30 AM70 °FClear.20 mph57%29.92 "Hg10 mi
4:00 AM70 °FClear.20 mph53%29.92 "Hg10 mi
3:00 AM72 °FClear.22 mph47%29.92 "Hg10 mi
2:00 AM72 °FClear.17 mph41%29.92 "Hg10 mi
1:30 AM72 °FClear.17 mph47%29.92 "Hg10 mi
1:00 AM72 °FClear.14 mph47%29.95 "Hg10 mi
12:30 AM72 °FClear.14 mph47%29.95 "Hg10 mi
12:00 AM72 °FClear.15 mph47%29.95 "Hg10 mi
11:30 PM
Wed, May 27
72 °FClear.16 mph44%29.92 "Hg10 mi
11:00 PM70 °FClear.18 mph53%29.92 "Hg10 mi
10:30 PM72 °FClear.17 mph41%29.92 "Hg10 mi
10:00 PM72 °FClear.17 mph44%29.92 "Hg10 mi
9:00 PM72 °FClear.14 mph50%29.92 "Hg10 mi
8:30 PM72 °FClear.17 mph50%29.89 "Hg10 mi
8:00 PM73 °FSunny.16 mph50%29.92 "Hg10 mi
7:30 PM75 °FSunny.20 mph47%29.92 "Hg10 mi
7:00 PM81 °FSunny.16 mph30%29.92 "Hg10 mi
6:30 PM82 °FSunny.16 mph26%29.92 "Hg10 mi
6:00 PM81 °FSunny.16 mph32%29.92 "Hg10 mi
Weather by CustomWeather, © 2015

See weather overviewHow to use our weather pages